CET,Max TemperatureF,Mean TemperatureF,Min TemperatureF,Max Dew PointF,MeanDew PointF,Min DewpointF,Max Humidity, Mean Humidity, Min Humidity, Max Sea Level PressureIn, Mean Sea Level PressureIn, Min Sea Level PressureIn, Max VisibilityMiles, Mean VisibilityMiles, Min VisibilityMiles, Max Wind SpeedMPH, Mean Wind SpeedMPH, Max Gust SpeedMPH,PrecipitationIn, CloudCover, Events, WindDirDegrees
2012-10-1,77,70,62,68,63,59,100,79,47,30.05,30.02,30.01,19,7,4,7,3,,0.01,2,Rain,214
2012-10-2,73,66,59,63,60,57,94,83,57,30.07,30.01,29.98,19,8,6,14,4,,0.00,2,,287
2012-10-3,74,65,56,64,60,55,100,86,60,30.10,30.07,30.04,19,7,2,9,4,,0.00,2,Fog-Rain,125
2012-10-4,72,64,55,64,58,54,100,86,57,30.09,30.05,30.01,12,5,2,8,4,,0.00,2,,127
2012-10-5,75,66,56,63,58,54,100,81,44,30.16,30.11,30.06,12,8,6,9,5,,0.00,1,,85
2012-10-6,74,64,55,63,59,54,100,85,60,30.16,30.12,30.06,12,6,4,7,3,,0.00,2,,80
2012-10-7,73,64,55,66,61,57,100,82,49,30.09,29.97,29.89,16,6,3,9,5,,0.00,2,Fog,145
2012-10-8,68,62,55,64,45,36,94,55,25,30.10,30.04,29.95,19,10,6,25,14,36,0.00,2,,75
2012-10-9,62,58,53,59,51,45,100,77,53,30.01,29.90,29.86,19,7,2,6,3,,0.08,6,Rain,81
2012-10-10,65,60,54,57,55,54,100,81,58,29.91,29.86,29.83,19,9,6,9,5,,0.00,5,Rain-Thunderstorm,72
2012-10-11,68,62,55,55,53,50,88,74,47,29.92,29.88,29.86,19,8,6,10,6,,0.12,3,Rain-Thunderstorm,63
2012-10-12,65,62,58,63,59,55,100,92,83,29.89,29.82,29.80,19,7,5,13,7,,0.35,6,Rain-Thunderstorm,81
2012-10-13,64,60,55,59,54,32,100,79,27,29.95,29.89,29.83,19,8,6,18,7,,0.24,3,Rain-Thunderstorm,65
2012-10-14,66,60,53,61,57,52,100,87,69,29.83,29.79,29.74,19,8,6,7,4,,0.00,3,Rain-Thunderstorm,100
2012-10-15,71,63,55,64,59,52,94,80,64,29.74,29.67,29.62,19,7,6,13,6,21,0.02,3,Rain-Thunderstorm,136
2012-10-16,64,56,48,59,53,46,94,81,48,30.06,29.82,29.68,19,8,6,17,9,,0.00,4,Rain,297
2012-10-17,69,58,47,57,51,46,94,80,44,30.22,30.16,30.04,19,8,6,7,5,,0.00,1,,98
2012-10-18,71,61,51,63,56,52,100,86,57,30.23,30.20,30.18,19,9,6,6,4,,0.00,1,Fog,73
2012-10-19,68,58,49,61,54,48,100,86,61,30.23,30.20,30.18,19,5,1,12,4,,0.00,1,,292
2012-10-20,66,58,49,57,54,50,94,85,61,30.21,30.16,30.12,5,4,2,9,5,,0.00,5,Fog,317
2012-10-21,69,60,50,59,54,48,94,83,58,30.13,30.07,30.04,19,4,2,18,5,,0.00,1,,297
2012-10-22,75,62,48,59,52,46,94,80,36,30.09,30.06,30.04,12,4,2,7,2,,0.00,,,354
2012-10-23,73,56,40,57,45,36,94,70,25,30.11,30.08,30.06,19,12,5,7,2,,0.00,,,340
2012-10-24,71,60,48,54,45,39,94,60,28,30.06,30.03,29.98,12,11,9,7,5,,0.00,,,2
2012-10-25,67,56,44,57,49,43,100,78,34,29.98,29.93,29.89,12,6,5,7,3,,0.00,4,,213
2012-10-26,67,58,48,63,59,50,94,87,74,29.90,29.75,29.47,6,6,4,9,5,20,0.08,5,Rain,80
2012-10-27,68,64,60,61,59,57,100,87,66,29.47,29.25,29.15,12,6,4,14,7,25,0.31,5,Rain-Thunderstorm,199
2012-10-28,52,47,42,59,43,33,94,76,51,29.68,29.42,29.21,19,7,6,32,15,50,0.00,4,Rain-Thunderstorm,61
2012-10-29,49,44,39,34,32,28,70,60,39,29.89,29.73,29.62,19,9,6,23,17,33,0.00,3,,49
2012-10-30,54,42,29,43,35,28,93,68,40,29.92,29.89,29.86,19,8,6,8,5,,0.00,5,,54
2012-10-31,59,54,48,55,49,41,94,80,54,29.89,29.73,29.36,19,7,6,22,8,36,0.28,6,Rain,105